Location: Ajisawe
(8.4333°N, 4.3833°E)
Time: 00:38:54
(UTC+00:00)

Courier 1B Rocket - Pass Details

Date: 28 April 2021
Orbit: 920 x 1202 km, 28.3° (Epoch: 13 May)

Event Time Altitude Azimuth Distance (km) Brightness Sun altitude
Rises 14:27:42 0° 265° (W) 3,611 8.6 48.5°
Reaches altitude 10° 14:30:39 10° 275° (W) 2,638 8.2 47.8°
Maximum altitude 14:36:11 32° 337° (NNW) 1,529 6.9 46.5°
Drops below altitude 10° 14:41:39 10° 39° (NE) 2,602 7.2 45.1°
Sets 14:44:34 0° 49° (NE) 3,556 7.7 44.4°
